Weather reports worldwide

Advertisment
Huesca, Spain (8094): temperature & dewpoint: 29.03.2020 01:00:00 - 04.04.2020 01:00:00 (CEST)Huesca, Spain (8094): wind speed: 29.03.2020 01:00:00 - 04.04.2020 01:00:00 (CEST)Huesca, Spain (8094): wind direction: 29.03.2020 01:00:00 - 04.04.2020 01:00:00 (CEST)Huesca, Spain (8094): reduced air pressure: 29.03.2020 01:00:00 - 04.04.2020 01:00:00 (CEST)Huesca, Spain (8094): visibility: 29.03.2020 01:00:00 - 04.04.2020 01:00:00 (CEST)Huesca, Spain (8094): precipitation: 29.03.2020 01:00:00 - 04.04.2020 01:00:00 (CEST)
Date & Time tt [°C] td [°C] ff [km/h] ff [kn] dd ppp [hPa] vv [km] rr [mm]
04.04.2020 01:00:00 7,2 4,8 8 4 NE 1018,7 - 0,0
04.04.2020 00:00:00 7,3 4,8 4 2 ENE 1018,4 - 0,0
03.04.2020 23:00:00 8,4 5,1 4 2 WSW 1017,8 - -
03.04.2020 22:00:00 8,9 5,3 2 1 WSW 1017,2 - 0,0
03.04.2020 21:00:00 10,7 5,9 2 1 WNW 1016,2 - 0,0
03.04.2020 20:00:00 12,9 6,2 4 2 WSW 1015,5 - -
03.04.2020 19:00:00 14,9 5,9 8 4 WSW 1014,8 - 0,0
03.04.2020 18:00:00 15,2 5,9 8 4 W 1014,6 - 0,0
03.04.2020 17:00:00 15,1 6,6 9 5 WSW 1014,8 - -
03.04.2020 16:00:00 14,8 6,4 9 5 WSW 1015,2 - 0,0
03.04.2020 15:00:00 13,9 6,3 11 6 WSW 1015,8 - 0,0
03.04.2020 14:00:00 13,1 6,7 8 4 WSW 1016,2 - -
03.04.2020 13:00:00 11,6 5,5 5 3 W 1017,0 - 0,0
03.04.2020 12:00:00 9,4 5,6 5 3 WNW 1017,7 - 0,0
03.04.2020 11:00:00 6,9 4,6 5 3 W 1018,0 - -
03.04.2020 10:00:00 4,8 3,1 5 3 W 1017,8 - 0,0
03.04.2020 09:00:00 4,1 2,6 8 4 W 1017,5 - 0,0
03.04.2020 08:00:00 2,0 1,1 5 3 WNW 1017,3 - -
03.04.2020 07:00:00 2,2 1,2 5 3 W 1016,6 - 0,0
03.04.2020 06:00:00 2,6 1,7 5 3 W 1016,1 - 0,0
03.04.2020 05:00:00 3,4 2,5 8 4 W 1015,7 - -
03.04.2020 04:00:00 4,5 4,1 5 3 W 1015,4 - 0,0
03.04.2020 03:00:00 5,3 4,7 5 3 W 1015,3 - 0,0
03.04.2020 02:00:00 7,1 7,0 4 2 W 1014,8 - -
03.04.2020 01:00:00 7,7 7,3 4 2 W 1014,6 - 0,0
03.04.2020 00:00:00 8,2 8,1 8 4 ENE 1014,4 - 0,0
02.04.2020 23:00:00 8,3 7,5 4 2 E 1013,7 - -
02.04.2020 22:00:00 9,4 7,8 2 1 S 1013,1 - 0,0
02.04.2020 21:00:00 10,6 8,5 4 2 SSW 1011,9 - 0,0
02.04.2020 20:00:00 11,5 9,6 4 2 ESE 1011,5 - -
02.04.2020 19:00:00 12,4 9,0 4 2 SW 1011,2 - 0,0
02.04.2020 18:00:00 12,8 8,3 4 2 SSW 1010,9 - 0,0
02.04.2020 17:00:00 12,7 8,0 8 4 W 1011,0 - -
02.04.2020 16:00:00 13,0 8,9 5 3 WSW 1011,4 - 0,0
02.04.2020 15:00:00 12,1 8,4 8 4 W 1011,9 - 0,0
02.04.2020 14:00:00 10,5 8,4 5 3 WSW 1012,6 - -
02.04.2020 13:00:00 9,5 7,9 5 3 W 1013,2 - 0,0
02.04.2020 12:00:00 8,7 8,1 5 3 W 1013,2 - 0,0
02.04.2020 11:00:00 8,3 8,0 5 3 W 1013,1 - -
02.04.2020 10:00:00 7,3 7,3 5 3 WSW 1012,8 - 0,2
02.04.2020 09:00:00 6,9 6,9 5 3 WSW 1012,5 - 0,0
02.04.2020 08:00:00 6,8 6,8 4 2 WSW 1012,3 - -
02.04.2020 07:00:00 6,7 6,7 2 1 NW 1012,1 - 0,0
02.04.2020 06:00:00 6,9 6,9 4 2 WNW 1012,1 - 0,0
02.04.2020 05:00:00 7,0 7,0 4 2 WSW 1012,4 - -
02.04.2020 04:00:00 7,0 7,0 4 2 NNW 1012,8 - 0,2
02.04.2020 03:00:00 7,2 7,2 4 2 WNW 1013,4 - 0,4
02.04.2020 02:00:00 7,2 7,2 2 1 WNW 1013,8 - -
02.04.2020 01:00:00 7,3 7,3 4 2 NW 1014,1 - 0,0
02.04.2020 00:00:00 7,5 7,5 4 2 NW 1014,3 - 0,2
01.04.2020 23:00:00 7,6 7,6 4 2 NNW 1014,3 - -
01.04.2020 22:00:00 7,6 7,5 2 1 NNW 1014,1 - 0,6
01.04.2020 21:00:00 8,1 7,8 4 2 E 1013,6 - 1,0
01.04.2020 20:00:00 8,6 8,3 2 1 ESE 1013,1 - -
01.04.2020 19:00:00 8,9 8,1 4 2 E 1012,9 - 1,0
01.04.2020 18:00:00 9,0 8,7 4 2 NNE 1012,9 - 0,6
01.04.2020 17:00:00 9,0 8,4 4 2 S 1013,4 7 -
01.04.2020 16:00:00 9,0 8,7 4 2 NW 1013,8 - 1,0
01.04.2020 15:00:00 9,0 8,5 4 2 WNW 1014,1 - 0,2
01.04.2020 14:00:00 9,5 8,7 2 1 SSW 1014,2 8 -
01.04.2020 13:00:00 9,4 8,2 5 3 SSE 1014,2 - 0,0
01.04.2020 12:00:00 9,1 7,5 9 5 E 1014,4 - 0,0
01.04.2020 11:00:00 9,1 7,5 13 7 E 1014,2 70 -
01.04.2020 10:00:00 8,6 7,2 11 6 E 1014,1 - 0,0
01.04.2020 09:00:00 8,1 7,0 13 7 E 1014,0 - 0,0
01.04.2020 08:00:00 7,9 7,0 15 8 E 1013,8 - -
01.04.2020 07:00:00 7,8 6,9 15 8 E 1013,7 - 0,0
01.04.2020 06:00:00 8,0 6,5 16 9 E 1013,9 - 0,0
01.04.2020 05:00:00 8,0 6,3 16 9 E 1013,9 - -
01.04.2020 04:00:00 7,6 6,4 15 8 E 1014,6 - 0,2
01.04.2020 03:00:00 7,6 6,4 11 6 E 1015,1 - 0,0
01.04.2020 02:00:00 7,7 6,5 15 8 E 1015,0 - -
01.04.2020 01:00:00 7,4 6,5 13 7 E 1015,3 - 0,0
01.04.2020 00:00:00 7,2 6,5 15 8 E 1015,4 - 0,0
31.03.2020 23:00:00 7,2 6,9 16 9 E 1015,4 - -
31.03.2020 22:00:00 7,4 7,3 15 8 E 1015,2 - 0,6
31.03.2020 21:00:00 7,4 7,3 16 9 E 1014,5 - 1,0
31.03.2020 20:00:00 7,7 7,4 15 8 E 1013,9 - -
31.03.2020 19:00:00 7,9 7,3 18 10 E 1013,4 - 0,8
31.03.2020 18:00:00 7,8 7,2 16 9 E 1013,3 - 1,0
31.03.2020 17:00:00 7,2 7,2 5 3 E 1013,5 1,5 -
31.03.2020 16:00:00 5,9 5,9 5 3 SE 1014,1 - 2,0
31.03.2020 15:00:00 5,0 4,9 4 2 SW 1014,6 - 1,0
31.03.2020 14:00:00 5,2 5,2 4 2 SE 1014,6 1,2 -
31.03.2020 13:00:00 2,6 2,6 4 2 NNW 1015,2 - 1,0
31.03.2020 12:00:00 1,8 1,8 5 3 WNW 1015,3 - 0,4
31.03.2020 11:00:00 1,2 1,2 4 2 NW 1015,3 1,2 -
31.03.2020 10:00:00 0,7 0,7 4 2 NW 1015,1 - 0,6
31.03.2020 09:00:00 1,0 1,0 2 1 N 1014,9 - 0,8
31.03.2020 08:00:00 0,4 0,4 4 2 E 1014,9 - -
31.03.2020 07:00:00 0,2 0,2 4 2 NNE 1014,9 - 2,0
31.03.2020 06:00:00 -0,1 -0,1 5 3 NW 1015,0 - 3,0
31.03.2020 05:00:00 0,0 0,0 4 2 W 1015,4 - -
31.03.2020 04:00:00 0,1 0,0 4 2 NW 1015,7 - 2,0
31.03.2020 03:00:00 0,7 0,3 4 2 NNW 1016,3 - 0,8
31.03.2020 02:00:00 1,4 0,8 2 1 ENE 1016,4 - -
31.03.2020 01:00:00 1,7 1,0 4 2 E 1016,7 - 0,2
31.03.2020 00:00:00 2,1 0,8 4 2 E 1017,1 - 0,2
30.03.2020 23:00:00 2,8 0,5 4 2 SE 1017,1 - -
30.03.2020 22:00:00 4,4 -1,6 8 4 S 1016,6 - 0,0
30.03.2020 21:00:00 5,1 -2,0 9 5 SSE 1016,1 - 0,0
30.03.2020 20:00:00 6,0 -1,6 4 2 SW 1015,0 - -
30.03.2020 19:00:00 6,8 -2,1 8 4 WSW 1014,4 - 0,0
30.03.2020 18:00:00 8,5 -1,9 5 3 W 1014,0 - 0,0
30.03.2020 17:00:00 8,6 -2,7 8 4 WSW 1013,8 70 -
30.03.2020 16:00:00 8,7 -4,5 5 3 W 1013,9 - 0,0
30.03.2020 15:00:00 8,8 -5,1 5 3 WNW 1014,2 - 0,0
30.03.2020 14:00:00 9,0 -4,2 5 3 W 1014,4 45 -
30.03.2020 13:00:00 7,3 -3,6 9 5 W 1015,0 - 0,0
30.03.2020 12:00:00 5,6 -3,5 9 5 W 1015,6 - 0,0
30.03.2020 11:00:00 4,2 -4,3 9 5 WNW 1016,1 - -
30.03.2020 10:00:00 3,2 -3,2 9 5 WNW 1015,6 - 0,0
30.03.2020 09:00:00 3,0 -1,6 8 4 W 1015,3 - 0,0
30.03.2020 08:00:00 2,8 -1,2 5 3 WNW 1014,8 - -
30.03.2020 07:00:00 2,6 -0,7 8 4 W 1014,4 - 0,0
30.03.2020 06:00:00 3,1 -0,2 9 5 W 1014,4 - 0,0
30.03.2020 05:00:00 4,9 1,0 9 5 W 1014,2 - -
30.03.2020 04:00:00 5,6 2,1 8 4 W 1014,1 - 0,0
30.03.2020 03:00:00 6,2 2,8 5 3 W 1014,1 - 0,0
30.03.2020 02:00:00 6,3 3,3 8 4 W 1014,0 - -
30.03.2020 01:00:00 6,8 3,6 8 4 WNW 1014,2 - 0,0
30.03.2020 00:00:00 6,8 3,4 8 4 W 1014,4 - 0,0
29.03.2020 23:00:00 7,4 3,4 9 5 W 1014,0 - -
29.03.2020 22:00:00 8,6 3,2 8 4 W 1013,8 - 0,0
29.03.2020 21:00:00 9,9 3,2 8 4 W 1013,0 - 0,0
29.03.2020 20:00:00 13,0 4,2 8 4 W 1012,1 - -
29.03.2020 19:00:00 16,1 5,7 9 5 W 1011,1 - 0,0
29.03.2020 18:00:00 17,6 4,5 9 5 W 1010,8 - 0,0
29.03.2020 17:00:00 18,7 4,1 11 6 W 1011,1 55 -
29.03.2020 16:00:00 18,7 4,5 9 5 W 1011,6 - 0,0
29.03.2020 15:00:00 18,1 4,6 8 4 W 1012,5 - 0,0
29.03.2020 14:00:00 16,4 5,0 11 6 WSW 1013,9 45 -
29.03.2020 13:00:00 14,1 5,7 9 5 W 1015,1 - 0,0
29.03.2020 12:00:00 11,7 5,1 8 4 W 1016,2 - 0,0
29.03.2020 11:00:00 8,3 4,9 8 4 W 1017,1 45 -
29.03.2020 10:00:00 5,8 3,3 9 5 WNW 1017,8 - 0,0
29.03.2020 09:00:00 4,4 2,4 8 4 W 1018,0 - 0,0
29.03.2020 08:00:00 3,9 2,3 8 4 WNW 1018,0 - -
29.03.2020 07:00:00 5,1 2,3 8 4 WNW 1017,7 - 0,0
29.03.2020 06:00:00 5,7 2,5 5 3 NW 1017,7 - 0,0
29.03.2020 05:00:00 5,3 2,5 5 3 W 1018,0 - -
29.03.2020 04:00:00 6,1 2,5 4 2 W 1018,1 - 0,0
29.03.2020 03:00:00 6,8 2,5 5 3 WSW 1018,6 - 0,0
29.03.2020 02:00:00 7,4 2,3 4 2 SW 1018,7 - -
29.03.2020 01:00:00 - - - - - - - -

tt = temperature
td = dewpoint
ff = wind speed
dd = wind direction
ppp = reduced air pressure
vv = visibility
rr = precipitation

Next stations